K0QED Weather Reports


time (UTC)temp
C
wind
direction
speed
KPH
gust
KPH
rain 1hr
cm
rain 24hr
cm
rain mn
cm
humidity
%
barometer
mb
20260906212746 28 111 3.2 3.2 0.00 0.00 0.00 38 1024.1
20260906212242 28 168 3.2 4.8 0.00 0.00 0.00 37 1024.2
20260906211742 28 251 4.8 4.8 0.00 0.00 0.00 37 1024.1
20260906211237 29 137 0.0 0.0 0.00 0.00 0.00 38 1024.0
20260906210732 28 182 3.2 4.8 0.00 0.00 0.00 39 1024.0
20260906210227 28 127 1.6 4.8 0.00 0.00 0.00 39 1024.5
20260906205722 28 192 3.2 8.0 0.00 0.00 0.00 39 1024.4
20260906205219 28 154 3.2 8.0 0.00 0.00 0.00 40 1024.6
20260906204719 28 66 1.6 3.2 0.00 0.00 0.00 41 1024.5
20260906204218 28 337 1.6 3.2 0.00 0.00 0.00 42 1024.7
20260906203718 27 188 3.2 3.2 0.00 0.00 0.00 43 1025.1
20260906203213 27 279 1.6 3.2 0.00 0.00 0.00 41 1024.1
20260906202710 28 69 4.8 8.0 0.00 0.00 0.00 41 1024.6
20260906202209 27 73 1.6 1.6 0.00 0.00 0.00 42 1024.7
20260906201704 28 106 4.8 8.0 0.00 0.00 0.00 41 1024.5
20260906201203 28 225 9.7 14.5 0.00 0.00 0.00 40 1024.6
20260906200659 28 151 3.2 4.8 0.00 0.00 0.00 41 1024.7
20260906200155 27 100 4.8 8.0 0.00 0.00 0.00 43 1024.9
20260906195650 27 129 1.6 1.6 0.00 0.00 0.00 43 1024.7
20260906195147 28 147 1.6 3.2 0.00 0.00 0.00 42 1024.9
20260906194642 27 325 1.6 1.6 0.00 0.00 0.00 42 1025.0
20260906194137 28 90 1.6 3.2 0.00 0.00 0.00 42 1024.7
20260906193632 27 96 0.0 1.6 0.00 0.00 0.00 42 1024.7
20260906193128 28 25 3.2 4.8 0.00 0.00 0.00 41 1024.9
20260906192623 27 214 4.8 8.0 0.00 0.00 0.00 41 1024.9
20260906192122 27 21 4.8 8.0 0.00 0.00 0.00 41 1025.0
20260906191618 28 58 3.2 3.2 0.00 0.00 0.00 39 1025.5
20260906191117 28 306 6.4 8.0 0.00 0.00 0.00 38 1025.0
20260906190617 27 134 1.6 1.6 0.00 0.00 0.00 39 1025.2
20260906190112 27 155 3.2 3.2 0.00 0.00 0.00 38 1025.4
20260906185610 28 206 4.8 9.7 0.00 0.00 0.00 37 1025.5
20260906185109 28 131 6.4 8.0 0.00 0.00 0.00 38 1026.1
20260906184604 27 132 0.0 1.6 0.00 0.00 0.00 40 1025.6
20260906184100 28 203 1.6 3.2 0.00 0.00 0.00 39 1026.1
20260906183556 27 219 3.2 3.2 0.00 0.00 0.00 38 1026.1
20260906183052 27 181 1.6 3.2 0.00 0.00 0.00 39 1025.7
20260906182546 27 245 1.6 3.2 0.00 0.00 0.00 40 1026.2
20260906182043 27 341 3.2 3.2 0.00 0.00 0.00 41 1026.4
20260906181538 27 173 4.8 9.7 0.00 0.00 0.00 40 1026.7
20260906181033 27 0 3.2 3.2 0.00 0.00 0.00 41 1026.6
20260906180528 27 146 4.8 4.8 0.00 0.00 0.00 40 1026.5
20260906180027 27 4 3.2 4.8 0.00 0.00 0.00 42 1026.6
20260906175526 26 192 3.2 4.8 0.00 0.00 0.00 42 1026.6
20260906175026 26 189 1.6 1.6 0.00 0.00 0.00 42 1026.7
20260906174524 25 1 1.6 1.6 0.00 0.00 0.00 43 1026.6
20260906174019 26 61 1.6 1.6 0.00 0.00 0.00 41 1026.9
20260906173514 26 201 1.6 3.2 0.00 0.00 0.00 40 1026.9
20260906173011 26 139 3.2 3.2 0.00 0.00 0.00 41 1027.0
20260906172505 26 351 4.8 4.8 0.00 0.00 0.00 41 1026.9
20260906172000 26 330 3.2 4.8 0.00 0.00 0.00 41 1027.0
20260906171455 26 358 1.6 3.2 0.00 0.00 0.00 41 1027.0
20260906170950 26 194 1.6 3.2 0.00 0.00 0.00 40 1027.0
20260906170446 26 357 1.6 1.6 0.00 0.00 0.00 42 1027.2
20260906165944 26 334 3.2 3.2 0.00 0.00 0.00 42 1027.2
20260906165442 26 348 4.8 4.8 0.00 0.00 0.00 42 1027.0
20260906164938 26 176 4.8 4.8 0.00 0.00 0.00 42 1027.1
20260906164436 25 71 3.2 3.2 0.00 0.00 0.00 42 1027.1
20260906163933 25 251 1.6 3.2 0.00 0.00 0.00 41 1027.0
20260906163428 25 23 1.6 1.6 0.00 0.00 0.00 42 1027.1
20260906162927 25 95 0.0 0.0 0.00 0.00 0.00 42 1026.9
20260906162425 25 5 3.2 3.2 0.00 0.00 0.00 43 1027.0
20260906161921 25 59 1.6 4.8 0.00 0.00 0.00 44 1027.0
20260906161420 25 96 4.8 4.8 0.00 0.00 0.00 44 1026.7
20260906160919 23 330 1.6 1.6 0.00 0.00 0.00 46 1027.2
20260906160413 23 1 3.2 3.2 0.00 0.00 0.00 46 1027.1
20260906155911 23 145 0.0 0.0 0.00 0.00 0.00 46 1027.0
20260906155405 23 47 1.6 1.6 0.00 0.00 0.00 45 1027.0
20260906154901 23 4 3.2 4.8 0.00 0.00 0.00 44 1026.7
20260906154355 23 151 3.2 3.2 0.00 0.00 0.00 43 1027.0
20260906153854 23 350 4.8 4.8 0.00 0.00 0.00 43 1026.9
20260906153353 23 187 4.8 4.8 0.00 0.00 0.00 43 1026.7
20260906152848 23 26 3.2 3.2 0.00 0.00 0.00 44 1026.7
20260906152343 22 342 3.2 3.2 0.00 0.00 0.00 46 1026.6
20260906151842 22 356 1.6 3.2 0.00 0.00 0.00 45 1027.0
20260906151338 22 339 3.2 3.2 0.00 0.00 0.00 46 1026.9
20260906150834 22 268 3.2 3.2 0.00 0.00 0.00 46 1026.7
20260906150329 22 350 1.6 1.6 0.00 0.00 0.00 47 1026.6
20260906145828 21 272 1.6 3.2 0.00 0.00 0.00 47 1026.6
20260906145327 21 272 3.2 3.2 0.00 0.00 0.00 47 1026.9
20260906144822 21 35 3.2 3.2 0.00 0.00 0.00 48 1026.6
20260906144317 21 6 3.2 3.2 0.00 0.00 0.00 50 1026.7
20260906143816 21 351 3.2 3.2 0.00 0.00 0.00 50 1026.9
20260906143314 21 337 3.2 3.2 0.00 0.00 0.00 51 1026.5
20260906142809 20 343 1.6 3.2 0.00 0.00 0.00 50 1026.6
20260906142306 20 348 1.6 1.6 0.00 0.00 0.00 51 1026.1
20260906141803 20 346 3.2 3.2 0.00 0.00 0.00 52 1026.4
20260906141257 20 36 3.2 3.2 0.00 0.00 0.00 52 1026.2
20260906140756 19 52 3.2 3.2 0.00 0.00 0.00 53 1026.4
20260906140251 19 25 3.2 3.2 0.00 0.00 0.00 54 1026.2
20260906135749 18 307 1.6 1.6 0.00 0.00 0.00 56 1026.4
20260906135244 18 355 3.2 3.2 0.00 0.00 0.00 56 1026.2
20260906134740 17 347 3.2 4.8 0.00 0.00 0.00 57 1026.4
20260906134235 17 6 3.2 3.2 0.00 0.00 0.00 58 1025.9
20260906133730 17 341 1.6 3.2 0.00 0.00 0.00 58 1026.1
20260906133226 17 348 3.2 3.2 0.00 0.00 0.00 59 1026.2
20260906132721 17 358 1.6 3.2 0.00 0.00 0.00 59 1026.0
20260906132216 17 344 3.2 3.2 0.00 0.00 0.00 59 1026.1
20260906131712 17 347 1.6 3.2 0.00 0.00 0.00 59 1025.9
20260906131207 16 338 1.6 1.6 0.00 0.00 0.00 59 1026.0
20260906130702 16 352 3.2 3.2 0.00 0.00 0.00 59 1025.7
20260906130157 16 334 1.6 3.2 0.00 0.00 0.00 59 1026.0
20260906125655 16 349 3.2 3.2 0.00 0.00 0.00 60 1025.6
20260906125154 16 341 3.2 3.2 0.00 0.00 0.00 59 1025.7
20260906124649 16 359 3.2 4.8 0.00 0.00 0.00 59 1025.7
20260906124144 16 344 3.2 4.8 0.00 0.00 0.00 59 1026.1
20260906123643 16 349 3.2 3.2 0.00 0.00 0.00 59 1025.9
20260906123139 17 329 1.6 3.2 0.00 0.00 0.00 57 1026.0
20260906122638 17 359 3.2 3.2 0.00 0.00 0.00 57 1025.9
20260906122134 17 12 3.2 3.2 0.00 0.00 0.00 57 1025.6
20260906121630 17 354 3.2 3.2 0.00 0.00 0.00 57 1025.9
20260906121126 17 345 1.6 3.2 0.00 0.00 0.00 57 1026.0
20260906120622 17 354 1.6 1.6 0.00 0.00 0.00 57 1025.7
20260906120119 17 347 3.2 3.2 0.00 0.00 0.00 57 1025.6
20260906115618 17 354 3.2 3.2 0.00 0.00 0.00 57 1025.6
20260906115115 17 354 1.6 1.6 0.00 0.00 0.00 56 1025.6
20260906114614 17 345 3.2 3.2 0.00 0.00 0.00 56 1025.7
20260906114109 17 357 3.2 3.2 0.00 0.00 0.00 56 1025.4
20260906113609 17 356 3.2 3.2 0.00 0.00 0.00 56 1025.7
20260906113103 17 354 3.2 3.2 0.00 0.00 0.00 56 1025.5
20260906112557 17 350 3.2 3.2 0.00 0.00 0.00 56 1025.5
20260906112055 17 357 3.2 3.2 0.00 0.00 0.00 56 1025.5
20260906111554 17 348 3.2 3.2 0.00 0.00 0.00 56 1025.4
20260906111049 17 357 3.2 3.2 0.00 0.00 0.00 56 1025.1
20260906110549 17 346 1.6 1.6 0.00 0.00 0.00 58 1025.1
20260906110048 17 347 3.2 3.2 0.00 0.00 0.00 57 1025.2
20260906105543 17 345 3.2 3.2 0.00 0.00 0.00 57 1025.2
20260906105039 17 342 3.2 3.2 0.00 0.00 0.00 57 1025.4
20260906104538 17 346 1.6 3.2 0.00 0.00 0.00 58 1025.2
20260906104032 16 1 1.6 1.6 0.00 0.00 0.00 59 1025.4
20260906103530 16 340 3.2 3.2 0.00 0.00 0.00 60 1025.6
20260906103026 16 345 3.2 3.2 0.00 0.00 0.00 61 1025.4
20260906102526 16 345 0.0 0.0 0.00 0.00 0.00 62 1025.6
20260906102021 16 346 0.0 0.0 0.00 0.00 0.00 62 1025.6
20260906101521 16 346 0.0 0.0 0.00 0.00 0.00 62 1025.5
20260906101016 16 343 0.0 0.0 0.00 0.00 0.00 63 1025.6
20260906100512 16 353 0.0 0.0 0.00 0.00 0.00 64 1025.6
20260906100006 16 349 0.0 0.0 0.00 0.00 0.00 64 1025.5
20260906095501 16 346 0.0 0.0 0.00 0.00 0.00 65 1025.9
20260906094956 16 343 0.0 0.0 0.00 0.00 0.00 66 1025.7
20260906094455 16 350 0.0 0.0 0.00 0.00 0.00 66 1025.7
20260906093951 16 1 0.0 0.0 0.00 0.00 0.00 66 1025.7
20260906093447 16 339 0.0 0.0 0.00 0.00 0.00 67 1025.9
20260906092942 16 345 0.0 0.0 0.00 0.00 0.00 69 1026.0
20260906092442 16 351 0.0 0.0 0.00 0.00 0.00 68 1025.7
20260906091937 17 348 0.0 0.0 0.00 0.00 0.00 68 1025.6
20260906091433 17 342 0.0 0.0 0.00 0.00 0.00 68 1026.0
20260906090929 17 347 0.0 0.0 0.00 0.00 0.00 68 1025.7
20260906090424 17 351 0.0 0.0 0.00 0.00 0.00 69 1025.9
20260906085918 17 351 0.0 0.0 0.00 0.00 0.00 69 1025.7
20260906085412 17 344 0.0 0.0 0.00 0.00 0.00 69 1025.5
20260906084911 17 341 0.0 0.0 0.00 0.00 0.00 70 1025.7
20260906084406 17 350 1.6 1.6 0.00 0.00 0.00 70 1025.6
20260906083905 17 355 0.0 0.0 0.00 0.00 0.00 71 1025.6
20260906083401 17 345 1.6 1.6 0.00 0.00 0.00 71 1025.5
20260906082900 17 337 1.6 1.6 0.00 0.00 0.00 71 1025.7
20260906082355 17 337 1.6 1.6 0.00 0.00 0.00 72 1025.9
20260906081852 17 358 1.6 1.6 0.00 0.00 0.00 72 1025.5
20260906081347 17 348 1.6 3.2 0.00 0.00 0.00 72 1025.7
20260906080843 17 344 1.6 1.6 0.00 0.00 0.00 73 1025.6
20260906080339 17 301 0.0 0.0 0.00 0.00 0.00 74 1025.4
20260906075838 17 324 0.0 0.0 0.00 0.00 0.00 74 1025.6
20260906075333 17 333 1.6 1.6 0.00 0.00 0.00 73 1025.7
20260906074829 17 317 0.0 0.0 0.00 0.00 0.00 74 1025.6
20260906074328 16 337 1.6 1.6 0.00 0.00 0.00 74 1025.5
20260906073827 16 295 0.0 0.0 0.00 0.00 0.00 75 1025.7
20260906073322 16 328 1.6 1.6 0.00 0.00 0.00 75 1025.7
20260906072818 16 322 0.0 0.0 0.00 0.00 0.00 76 1026.2
20260906072314 16 298 0.0 0.0 0.00 0.00 0.00 77 1026.1
20260906071810 16 304 0.0 0.0 0.00 0.00 0.00 77 1026.0
20260906071304 16 302 0.0 0.0 0.00 0.00 0.00 76 1026.2
20260906070801 16 296 0.0 0.0 0.00 0.00 0.00 76 1025.9
20260906070256 16 314 1.6 3.2 0.00 0.00 0.00 76 1026.0
20260906065756 16 313 0.0 0.0 0.00 0.00 0.00 75 1026.0
20260906065251 16 294 0.0 0.0 0.00 0.00 0.00 75 1026.1
20260906064747 16 302 0.0 0.0 0.00 0.00 0.00 75 1026.4
20260906064243 16 323 0.0 0.0 0.00 0.00 0.00 76 1026.4
20260906063737 16 321 0.0 0.0 0.00 0.00 0.00 75 1026.2
20260906063233 16 315 0.0 0.0 0.00 0.00 0.00 76 1026.4
20260906062728 16 316 0.0 0.0 0.00 0.00 0.00 75 1025.7
20260906062227 16 292 0.0 0.0 0.00 0.00 0.00 76 1026.1
20260906061723 16 293 0.0 0.0 0.00 0.00 0.00 76 1025.9
20260906061219 16 292 0.0 0.0 0.00 0.00 0.00 76 1026.0
20260906060715 16 292 0.0 0.0 0.00 0.00 0.00 77 1025.9
20260906060212 16 297 0.0 0.0 0.00 0.00 0.00 77 1025.9
20260906055707 16 318 0.0 0.0 0.00 0.00 0.00 78 1026.1
20260906055203 16 303 0.0 0.0 0.00 0.00 0.00 78 1025.9
20260906054657 16 280 0.0 0.0 0.00 0.00 0.00 79 1025.9
20260906054152 16 325 0.0 0.0 0.00 0.00 0.00 78 1026.1
20260906053649 16 317 0.0 0.0 0.00 0.00 0.00 78 1026.0
20260906053144 16 317 0.0 0.0 0.00 0.00 0.00 77 1025.9
20260906052639 16 320 0.0 0.0 0.00 0.00 0.00 77 1025.7
20260906052136 16 303 0.0 0.0 0.00 0.00 0.00 77 1025.9
20260906051632 16 293 0.0 0.0 0.00 0.00 0.00 76 1026.2
20260906051131 16 314 0.0 0.0 0.00 0.00 0.00 76 1026.1
20260906050627 16 290 0.0 0.0 0.00 0.00 0.00 76 1026.1
20260906050122 17 315 0.0 0.0 0.00 0.00 0.00 76 1026.2
20260906045620 17 315 0.0 0.0 0.00 0.00 0.00 76 1025.9
20260906045116 17 308 0.0 0.0 0.00 0.00 0.00 75 1025.9
20260906044612 17 294 0.0 0.0 0.00 0.00 0.00 75 1026.1
20260906044107 17 304 0.0 0.0 0.00 0.00 0.00 74 1026.2
20260906043603 17 281 0.0 0.0 0.00 0.00 0.00 74 1026.2
20260906043058 17 280 0.0 0.0 0.00 0.00 0.00 74 1026.1
20260906042557 18 310 0.0 0.0 0.00 0.00 0.00 73 1026.2
20260906042052 18 332 0.0 0.0 0.00 0.00 0.00 73 1026.2
20260906041549 18 262 1.6 1.6 0.00 0.00 0.00 73 1026.4
20260906041043 18 263 0.0 1.6 0.00 0.00 0.00 72 1026.2
20260906040538 18 213 0.0 1.6 0.00 0.00 0.00 73 1026.1
20260906040034 18 331 0.0 0.0 0.00 0.00 0.00 73 1026.2
20260906035529 18 340 0.0 0.0 0.00 0.00 0.00 72 1026.5
20260906035025 18 332 0.0 1.6 0.00 0.00 0.00 73 1026.4
20260906034524 18 331 0.0 0.0 0.00 0.00 0.00 72 1026.4
20260906034020 18 323 0.0 0.0 0.00 0.00 0.00 72 1026.6
20260906033514 18 336 0.0 0.0 0.00 0.00 0.00 72 1026.4
20260906033010 19 336 1.6 1.6 0.00 0.00 0.00 72 1026.2
20260906032506 19 334 0.0 1.6 0.00 0.00 0.00 72 1026.4
20260906032001 19 340 0.0 0.0 0.00 0.00 0.00 71 1026.2
20260906031456 19 327 0.0 0.0 0.00 0.00 0.00 71 1026.4
20260906030951 20 72 0.0 0.0 0.00 0.00 0.00 70 1026.2
20260906030446 20 63 1.6 1.6 0.00 0.00 0.00 70 1026.0
20260906025940 20 38 0.0 0.0 0.00 0.00 0.00 70 1025.7
20260906025440 20 356 0.0 0.0 0.00 0.00 0.00 69 1025.6
20260906024938 20 1 1.6 3.2 0.00 0.00 0.00 69 1025.7
20260906024433 20 18 0.0 1.6 0.00 0.00 0.00 69 1025.7
20260906023933 20 107 0.0 0.0 0.00 0.00 0.00 68 1025.9
20260906023429 20 331 0.0 1.6 0.00 0.00 0.00 68 1025.9
20260906022924 21 325 0.0 0.0 0.00 0.00 0.00 67 1025.7
20260906022419 21 18 3.2 3.2 0.00 0.00 0.00 66 1025.6
20260906021915 21 107 1.6 1.6 0.00 0.00 0.00 65 1025.7
20260906021414 21 135 3.2 3.2 0.00 0.00 0.00 64 1025.5
20260906020909 21 13 3.2 3.2 0.00 0.00 0.00 62 1025.6
20260906020403 21 283 1.6 3.2 0.00 0.00 0.00 57 1025.7
20260906015857 21 99 1.6 3.2 0.00 0.00 0.00 53 1025.4
20260906015357 21 345 0.0 0.0 0.00 0.00 0.00 43 1025.2
20260906014857 21 335 0.0 0.0 0.00 0.00 0.00 43 1024.9
20260906014357 21 348 0.0 0.0 0.00 0.00 0.00 43 1024.9
20260906013853 21 337 0.0 0.0 0.00 0.00 0.00 43 1024.9
20260906013348 22 344 1.6 1.6 0.00 0.00 0.00 42 1024.9
20260906012844 22 346 1.6 1.6 0.00 0.00 0.00 41 1025.0
20260906012339 22 338 0.0 0.0 0.00 0.00 0.00 41 1024.9
20260906011838 22 343 0.0 0.0 0.00 0.00 0.00 40 1025.0
20260906011333 23 343 0.0 0.0 0.00 0.00 0.00 40 1025.0
20260906010829 23 343 0.0 0.0 0.00 0.00 0.00 39 1025.0
20260906010325 23 343 0.0 0.0 0.00 0.00 0.00 39 1025.1
20260906005821 23 344 0.0 0.0 0.00 0.00 0.00 38 1025.2
20260906005319 24 335 0.0 0.0 0.00 0.00 0.00 38 1025.1
20260906004819 24 335 0.0 0.0 0.00 0.00 0.00 38 1025.0
20260906004318 25 335 0.0 0.0 0.00 0.00 0.00 37 1025.0
20260906003814 25 335 0.0 0.0 0.00 0.00 0.00 37 1025.1
20260906003309 25 335 1.6 1.6 0.00 0.00 0.00 36 1025.1
20260906002805 25 335 0.0 0.0 0.00 0.00 0.00 36 1025.1
20260906002306 25 335 0.0 0.0 0.00 0.00 0.00 35 1025.4
20260906001800 25 335 0.0 0.0 0.00 0.00 0.00 35 1025.0
20260906001254 25 320 0.0 1.6 0.00 0.00 0.00 35 1024.9
20260906000749 25 324 1.6 1.6 0.00 0.00 0.00 35 1024.9
20260906000244 25 313 1.6 1.6 0.00 0.00 0.00 35 1025.1
20260905235739 25 320 0.0 0.0 0.00 0.00 0.00 35 1025.2
20260905235238 25 333 0.0 1.6 0.00 0.00 0.00 35 1024.9
20260905234734 26 334 0.0 0.0 0.00 0.00 0.00 36 1025.0
20260905234229 26 320 0.0 0.0 0.00 0.00 0.00 34 1024.6
20260905233725 26 336 0.0 0.0 0.00 0.00 0.00 33 1025.1
20260905233224 26 319 0.0 0.0 0.00 0.00 0.00 33 1025.0
20260905232719 26 319 0.0 0.0 0.00 0.00 0.00 32 1025.0
20260905232215 27 304 0.0 0.0 0.00 0.00 0.00 32 1025.0
20260905231710 26 338 0.0 0.0 0.00 0.00 0.00 33 1024.7
20260905231206 27 347 3.2 3.2 0.00 0.00 0.00 32 1024.7
20260905230702 27 306 1.6 1.6 0.00 0.00 0.00 31 1024.9
20260905230200 27 311 0.0 1.6 0.00 0.00 0.00 31 1024.9
20260905225659 28 281 0.0 0.0 0.00 0.00 0.00 30 1024.6
20260905225154 28 205 0.0 0.0 0.00 0.00 0.00 30 1025.0
20260905224653 27 249 1.6 3.2 0.00 0.00 0.00 30 1025.0
20260905224148 27 283 0.0 0.0 0.00 0.00 0.00 31 1025.1
20260905223645 27 244 1.6 3.2 0.00 0.00 0.00 32 1025.1
20260905223142 27 287 3.2 3.2 0.00 0.00 0.00 31 1025.4
20260905222637 27 331 1.6 3.2 0.00 0.00 0.00 32 1025.1
20260905222131 27 302 0.0 0.0 0.00 0.00 0.00 32 1025.2
20260905221627 26 316 1.6 3.2 0.00 0.00 0.00 32 1025.4
20260905221123 27 238 0.0 1.6 0.00 0.00 0.00 32 1025.1
20260905220613 28 337 3.2 3.2 0.00 0.00 0.00 31 1025.2
20260905220109 27 336 3.2 3.2 0.00 0.00 0.00 32 1025.0
20260905215609 27 205 3.2 3.2 0.00 0.00 0.00 31 1025.2
20260905215104 26 233 1.6 1.6 0.00 0.00 0.00 32 1025.4
20260905214600 25 331 3.2 3.2 0.00 0.00 0.00 34 1025.1
20260905214055 25 12 0.0 0.0 0.00 0.00 0.00 35 1025.5
20260905213550 25 337 1.6 1.6 0.00 0.00 0.00 38 1025.2